Time,TemperatureF,DewpointF,PressureIn,WindDirection,WindDirectionDegrees,WindSpeedMPH,WindSpeedGustMPH,Humidity,HourlyPrecipIn,Conditions,Clouds,dailyrainin,SoftwareType,DateUTC
2013-04-25 00:00:00,44.9,29.3,29.96,North,360,9.0,15.0,54,0.00,,FEW250,0.00,VWS V14.01,2013-04-25 05:00:00,
2013-04-25 00:04:00,44.9,29.3,29.96,North,360,8.0,16.0,54,0.00,,SCT250,0.00,VWS V14.01,2013-04-25 05:04:00,
2013-04-25 00:05:00,44.9,29.3,29.96,North,360,7.0,16.0,54,0.00,,FEW250,0.00,VWS V14.01,2013-04-25 05:05:00,
2013-04-25 00:09:00,44.9,29.3,29.96,North,360,3.0,17.0,54,0.00,,SCT250,0.00,VWS V14.01,2013-04-25 05:09:00,
2013-04-25 00:10:00,44.9,29.3,29.96,SW,223,3.0,17.0,54,0.00,,SCT250,0.00,VWS V14.01,2013-04-25 05:10:00,
2013-04-25 00:14:00,44.7,29.5,29.96,North,360,3.0,15.0,55,0.00,,SCT250,0.00,VWS V14.01,2013-04-25 05:14:00,
2013-04-25 00:15:00,44.7,29.5,29.96,North,360,3.0,15.0,55,0.00,,FEW250,0.00,VWS V14.01,2013-04-25 05:15:00,
2013-04-25 00:19:00,44.6,29.5,29.96,North,360,10.0,14.0,55,0.00,,SCT250,0.00,VWS V14.01,2013-04-25 05:19:00,
2013-04-25 00:20:00,44.6,29.5,29.96,North,360,10.0,14.0,55,0.00,,FEW250,0.00,VWS V14.01,2013-04-25 05:20:00,
2013-04-25 00:24:00,44.5,29.4,29.96,North,360,9.0,16.0,55,0.00,,SCT250,0.00,VWS V14.01,2013-04-25 05:24:00,
2013-04-25 00:25:00,44.5,29.4,29.96,North,360,9.0,16.0,55,0.00,,FEW250,0.00,VWS V14.01,2013-04-25 05:25:00,
2013-04-25 00:29:00,44.4,29.7,29.96,North,360,4.0,12.0,56,0.00,,SCT250,0.00,VWS V14.01,2013-04-25 05:29:00,
2013-04-25 00:30:00,44.4,29.7,29.96,North,360,4.0,12.0,56,0.00,,FEW250,0.00,VWS V14.01,2013-04-25 05:30:00,
2013-04-25 00:34:00,44.4,29.7,29.95,North,360,7.0,13.0,56,0.00,,SCT250,0.00,VWS V14.01,2013-04-25 05:34:00,
2013-04-25 00:35:00,44.4,29.7,29.95,North,360,7.0,13.0,56,0.00,,FEW250,0.00,VWS V14.01,2013-04-25 05:35:00,
2013-04-25 00:39:00,44.5,29.8,29.95,North,360,5.0,19.0,56,0.00,,SCT250,0.00,VWS V14.01,2013-04-25 05:39:00,
2013-04-25 00:40:00,44.5,29.8,29.95,North,360,5.0,19.0,56,0.00,,FEW250,0.00,VWS V14.01,2013-04-25 05:40:00,
2013-04-25 00:44:00,44.5,29.8,29.95,South,185,7.0,20.0,56,0.00,,SCT250,0.00,VWS V14.01,2013-04-25 05:44:00,
2013-04-25 00:45:00,44.5,29.8,29.95,North,360,9.0,20.0,56,0.00,,FEW250,0.00,VWS V14.01,2013-04-25 05:45:00,
2013-04-25 00:49:00,44.5,29.8,29.95,North,360,10.0,16.0,56,0.00,,SCT250,0.00,VWS V14.01,2013-04-25 05:49:00,
2013-04-25 00:50:00,44.5,29.8,29.95,North,360,10.0,16.0,56,0.00,,FEW250,0.00,VWS V14.01,2013-04-25 05:50:00,
2013-04-25 00:54:00,44.5,30.2,29.94,North,360,5.0,14.0,57,0.00,,SCT250,0.00,VWS V14.01,2013-04-25 05:54:00,
2013-04-25 00:55:00,44.5,30.2,29.94,North,360,10.0,14.0,57,0.00,,FEW250,0.00,VWS V14.01,2013-04-25 05:55:00,
2013-04-25 00:59:00,44.4,30.1,29.94,South,178,16.0,17.0,57,0.00,,SCT250,0.00,VWS V14.01,2013-04-25 05:59:00,
2013-04-25 01:00:00,44.4,30.1,29.94,North,360,7.0,16.0,57,0.00,,FEW250,0.00,VWS V14.01,2013-04-25 06:00:00,
2013-04-25 01:04:00,44.4,30.1,29.94,North,360,5.0,17.0,57,0.00,,BKN170,0.00,VWS V14.01,2013-04-25 06:04:00,
2013-04-25 01:05:00,44.4,30.1,29.94,North,360,5.0,17.0,57,0.00,,FEW250,0.00,VWS V14.01,2013-04-25 06:05:00,
2013-04-25 01:09:00,44.4,30.1,29.94,North,360,6.0,22.0,57,0.00,,BKN170,0.00,VWS V14.01,2013-04-25 06:09:00,
2013-04-25 01:10:00,44.4,30.1,29.94,North,360,15.0,22.0,57,0.00,,FEW250,0.00,VWS V14.01,2013-04-25 06:10:00,
2013-04-25 01:14:00,44.4,30.1,29.93,North,360,5.0,19.0,57,0.00,,BKN170,0.00,VWS V14.01,2013-04-25 06:14:00,
2013-04-25 01:15:00,44.4,30.1,29.93,North,360,7.0,19.0,57,0.00,,FEW250,0.00,VWS V14.01,2013-04-25 06:15:00,
2013-04-25 01:19:00,44.4,30.1,29.93,North,360,13.0,20.0,57,0.00,,BKN170,0.00,VWS V14.01,2013-04-25 06:19:00,
2013-04-25 01:20:00,44.4,30.1,29.93,North,360,14.0,20.0,57,0.00,,FEW250,0.00,VWS V14.01,2013-04-25 06:20:00,
2013-04-25 01:25:00,44.4,30.1,29.93,North,360,6.0,17.0,57,0.00,,BKN170,0.00,VWS V14.01,2013-04-25 06:25:00,
2013-04-25 01:30:00,44.3,30.5,29.93,North,360,5.0,14.0,58,0.00,,BKN170,0.00,VWS V14.01,2013-04-25 06:30:00,
2013-04-25 01:35:00,44.3,30.5,29.93,North,360,5.0,15.0,58,0.00,,BKN170,0.00,VWS V14.01,2013-04-25 06:35:00,
2013-04-25 01:40:00,44.4,30.6,29.93,North,360,3.0,18.0,58,0.00,,BKN170,0.00,VWS V14.01,2013-04-25 06:40:00,
2013-04-25 01:45:00,44.5,30.7,29.93,North,360,5.0,15.0,58,0.00,,BKN170,0.00,VWS V14.01,2013-04-25 06:45:00,
2013-04-25 01:50:00,44.6,30.8,29.92,North,360,8.0,13.0,58,0.00,,BKN170,0.00,VWS V14.01,2013-04-25 06:50:00,
2013-04-25 01:55:00,44.9,31.0,29.93,SSE,150,5.0,16.0,58,0.00,,BKN170,0.00,VWS V14.01,2013-04-25 06:55:00,
2013-04-25 02:00:00,45.4,31.1,29.92,North,360,7.0,24.0,57,0.00,,BKN170,0.00,VWS V14.01,2013-04-25 07:00:00,
2013-04-25 02:05:00,45.6,31.3,29.92,South,182,11.0,20.0,57,0.00,,BKN140,0.00,VWS V14.01,2013-04-25 07:05:00,
2013-04-25 02:10:00,45.7,31.8,29.91,SW,215,12.0,21.0,58,0.00,,BKN140,0.00,VWS V14.01,2013-04-25 07:10:00,
2013-04-25 02:15:00,45.7,31.8,29.91,North,360,3.0,24.0,58,0.00,,BKN140,0.00,VWS V14.01,2013-04-25 07:15:00,
2013-04-25 02:20:00,45.6,31.7,29.91,North,360,16.0,23.0,58,0.00,,BKN140,0.00,VWS V14.01,2013-04-25 07:20:00,
2013-04-25 02:25:00,45.5,32.0,29.92,North,360,10.0,15.0,59,0.00,,BKN140,0.00,VWS V14.01,2013-04-25 07:25:00,
2013-04-25 02:30:00,45.4,31.9,29.92,North,360,7.0,24.0,59,0.00,,BKN140,0.00,VWS V14.01,2013-04-25 07:30:00,
2013-04-25 02:35:00,45.2,31.7,29.91,North,360,11.0,19.0,59,0.00,,BKN140,0.00,VWS V14.01,2013-04-25 07:35:00,
2013-04-25 02:40:00,45.1,32.1,29.91,SSE,166,4.0,21.0,60,0.00,,FEW250,0.00,VWS V14.01,2013-04-25 07:40:00,
2013-04-25 02:41:00,45.0,32.4,29.91,North,360,21.0,24.0,61,0.00,,BKN140,0.00,VWS V14.01,2013-04-25 07:41:00,
2013-04-25 02:45:00,44.9,32.7,29.91,South,185,17.0,24.0,62,0.00,,FEW250,0.00,VWS V14.01,2013-04-25 07:45:00,
2013-04-25 02:46:00,44.8,32.6,29.91,North,360,4.0,18.0,62,0.00,,BKN140,0.00,VWS V14.01,2013-04-25 07:46:00,
2013-04-25 02:50:00,44.7,32.5,29.91,North,360,9.0,25.0,62,0.00,,FEW250,0.00,VWS V14.01,2013-04-25 07:50:00,
2013-04-25 02:51:00,44.7,32.9,29.91,North,360,18.0,26.0,63,0.00,,BKN140,0.00,VWS V14.01,2013-04-25 07:51:00,
2013-04-25 02:55:00,44.6,32.8,29.91,North,360,9.0,26.0,63,0.00,,FEW250,0.00,VWS V14.01,2013-04-25 07:55:00,
2013-04-25 02:56:00,44.6,33.2,29.91,North,360,12.0,19.0,64,0.00,,BKN140,0.00,VWS V14.01,2013-04-25 07:56:00,
2013-04-25 03:00:00,44.5,33.5,29.91,SSE,164,6.0,19.0,65,0.00,,FEW250,0.00,VWS V14.01,2013-04-25 08:00:00,
2013-04-25 03:01:00,44.4,33.8,29.91,North,360,8.0,15.0,66,0.00,,-RA,0.00,VWS V14.01,2013-04-25 08:01:00,
2013-04-25 03:05:00,44.3,33.7,29.91,North,360,16.0,19.0,66,0.00,,FEW250,0.00,VWS V14.01,2013-04-25 08:05:00,
2013-04-25 03:06:00,44.2,34.0,29.91,SSE,148,6.0,19.0,67,0.00,,-RA,0.00,VWS V14.01,2013-04-25 08:06:00,
2013-04-25 03:10:00,44.1,33.9,29.91,SE,132,13.0,19.0,67,0.00,,FEW250,0.00,VWS V14.01,2013-04-25 08:10:00,
2013-04-25 03:11:00,44.1,34.2,29.91,North,360,3.0,17.0,68,0.00,,-RA,0.00,VWS V14.01,2013-04-25 08:11:00,
2013-04-25 03:15:00,44.0,34.1,29.91,SW,228,10.0,18.0,68,0.00,,FEW250,0.00,VWS V14.01,2013-04-25 08:15:00,
2013-04-25 03:16:00,44.0,34.5,29.91,North,360,3.0,18.0,69,0.00,,-RA,0.00,VWS V14.01,2013-04-25 08:16:00,
2013-04-25 03:20:00,43.9,34.4,29.91,North,360,2.0,15.0,69,0.00,,FEW250,0.00,VWS V14.01,2013-04-25 08:20:00,
2013-04-25 03:21:00,43.8,34.3,29.91,North,360,4.0,15.0,69,0.00,,-RA,0.00,VWS V14.01,2013-04-25 08:21:00,
2013-04-25 03:25:00,43.8,34.7,29.91,North,360,9.0,14.0,70,0.00,,FEW250,0.00,VWS V14.01,2013-04-25 08:25:00,
2013-04-25 03:26:00,43.8,34.7,29.91,North,360,3.0,17.0,70,0.00,,-RA,0.00,VWS V14.01,2013-04-25 08:26:00,
2013-04-25 03:30:00,43.8,34.7,29.91,North,360,3.0,17.0,70,0.00,,FEW250,0.00,VWS V14.01,2013-04-25 08:30:00,
2013-04-25 03:31:00,43.8,34.7,29.91,North,360,1.0,17.0,70,0.00,,-RA,0.00,VWS V14.01,2013-04-25 08:31:00,
2013-04-25 03:35:00,43.8,35.0,29.91,North,360,2.0,13.0,71,0.00,,FEW250,0.00,VWS V14.01,2013-04-25 08:35:00,
2013-04-25 03:36:00,43.9,35.1,29.91,North,360,3.0,14.0,71,0.00,,-RA,0.00,VWS V14.01,2013-04-25 08:36:00,
2013-04-25 03:40:00,43.9,35.1,29.91,WSW,238,13.0,14.0,71,0.00,,FEW250,0.00,VWS V14.01,2013-04-25 08:40:00,
2013-04-25 03:41:00,43.9,35.1,29.91,North,360,9.0,16.0,71,0.00,,-RA,0.00,VWS V14.01,2013-04-25 08:41:00,
2013-04-25 03:45:00,43.9,35.5,29.91,North,360,7.0,16.0,72,0.00,,FEW250,0.00,VWS V14.01,2013-04-25 08:45:00,
2013-04-25 03:47:00,43.9,35.5,29.91,North,360,15.0,15.0,72,0.00,,-RA,0.00,VWS V14.01,2013-04-25 08:47:00,
2013-04-25 03:50:00,43.8,35.7,29.91,North,360,15.0,17.0,73,0.00,,FEW250,0.00,VWS V14.01,2013-04-25 08:50:00,
2013-04-25 03:52:00,43.7,35.6,29.91,North,360,8.0,19.0,73,0.00,,-RA,0.00,VWS V14.01,2013-04-25 08:52:00,
2013-04-25 03:55:00,43.6,35.9,29.91,North,360,10.0,19.0,74,0.00,,FEW250,0.00,VWS V14.01,2013-04-25 08:55:00,
2013-04-25 03:57:00,43.5,35.8,29.91,SW,234,12.0,19.0,74,0.00,,-RA,0.00,VWS V14.01,2013-04-25 08:57:00,
2013-04-25 04:00:00,43.4,36.0,29.91,SW,225,3.0,19.0,75,0.00,,FEW250,0.00,VWS V14.01,2013-04-25 09:00:00,
2013-04-25 04:02:00,43.4,36.0,29.91,SW,232,3.0,15.0,75,0.00,,OVC150,0.00,VWS V14.01,2013-04-25 09:02:00,
2013-04-25 04:05:00,43.3,35.9,29.91,SW,232,1.0,16.0,75,0.00,,FEW250,0.00,VWS V14.01,2013-04-25 09:05:00,
2013-04-25 04:07:00,43.2,35.8,29.91,North,360,3.0,18.0,75,0.00,,OVC150,0.00,VWS V14.01,2013-04-25 09:07:00,
2013-04-25 04:10:00,43.2,36.2,29.91,North,360,1.0,18.0,76,0.00,,FEW250,0.00,VWS V14.01,2013-04-25 09:10:00,
2013-04-25 04:12:00,43.1,36.1,29.91,North,360,5.0,12.0,76,0.00,,OVC150,0.00,VWS V14.01,2013-04-25 09:12:00,
2013-04-25 04:15:00,43.0,36.0,29.91,North,360,3.0,12.0,76,0.00,,FEW250,0.00,VWS V14.01,2013-04-25 09:15:00,
2013-04-25 04:17:00,42.9,35.9,29.92,North,360,12.0,12.0,76,0.00,,OVC150,0.00,VWS V14.01,2013-04-25 09:17:00,
2013-04-25 04:20:00,42.8,36.1,29.92,WSW,242,15.0,17.0,77,0.00,,FEW250,0.00,VWS V14.01,2013-04-25 09:20:00,
2013-04-25 04:22:00,42.8,36.1,29.92,North,360,2.0,16.0,77,0.00,,OVC150,0.00,VWS V14.01,2013-04-25 09:22:00,
2013-04-25 04:25:00,42.8,36.1,29.92,SW,215,5.0,16.0,77,0.00,,FEW250,0.00,VWS V14.01,2013-04-25 09:25:00,
2013-04-25 04:27:00,42.7,36.0,29.92,North,360,5.0,13.0,77,0.00,,OVC150,0.00,VWS V14.01,2013-04-25 09:27:00,
2013-04-25 04:30:00,42.7,36.0,29.92,North,360,2.0,11.0,77,0.00,,FEW250,0.00,VWS V14.01,2013-04-25 09:30:00,
2013-04-25 04:32:00,42.6,36.2,29.92,North,360,7.0,15.0,78,0.00,,OVC150,0.00,VWS V14.01,2013-04-25 09:32:00,
2013-04-25 04:35:00,42.6,36.2,29.92,North,360,14.0,15.0,78,0.00,,FEW250,0.00,VWS V14.01,2013-04-25 09:35:00,
2013-04-25 04:37:00,42.5,36.1,29.92,North,360,15.0,18.0,78,0.00,,OVC150,0.00,VWS V14.01,2013-04-25 09:37:00,
2013-04-25 04:40:00,42.5,36.1,29.92,North,360,1.0,18.0,78,0.00,,FEW250,0.00,VWS V14.01,2013-04-25 09:40:00,
2013-04-25 04:42:00,42.5,36.1,29.92,North,360,3.0,15.0,78,0.00,,OVC150,0.00,VWS V14.01,2013-04-25 09:42:00,
2013-04-25 04:45:00,42.5,36.1,29.92,North,360,4.0,15.0,78,0.00,,FEW250,0.00,VWS V14.01,2013-04-25 09:45:00,
2013-04-25 04:48:00,42.6,36.2,29.92,SW,221,1.0,15.0,78,0.00,,OVC150,0.00,VWS V14.01,2013-04-25 09:48:00,
2013-04-25 04:50:00,42.6,36.2,29.92,North,360,5.0,15.0,78,0.00,,FEW250,0.00,VWS V14.01,2013-04-25 09:50:00,
2013-04-25 04:53:00,41.9,35.9,29.94,North,360,13.0,30.0,79,0.01,,OVC150,0.01,VWS V14.01,2013-04-25 09:53:00,
2013-04-25 04:55:00,41.3,35.6,29.94,North,360,15.0,30.0,80,0.02,,FEW250,0.02,VWS V14.01,2013-04-25 09:55:00,
2013-04-25 04:58:00,40.0,35.6,29.93,West,273,9.0,22.0,84,0.03,,OVC150,0.03,VWS V14.01,2013-04-25 09:58:00,
2013-04-25 05:00:00,39.9,35.8,29.93,West,267,6.0,18.0,85,0.03,,FEW250,0.03,VWS V14.01,2013-04-25 10:00:00,
2013-04-25 05:03:00,39.6,35.8,29.93,WSW,257,7.0,17.0,86,0.03,,BKN100,0.03,VWS V14.01,2013-04-25 10:03:00,
2013-04-25 05:05:00,39.6,35.8,29.93,North,360,2.0,17.0,86,0.03,,FEW250,0.03,VWS V14.01,2013-04-25 10:05:00,
2013-04-25 05:08:00,39.5,35.7,29.93,North,360,5.0,12.0,86,0.03,,BKN100,0.03,VWS V14.01,2013-04-25 10:08:00,
2013-04-25 05:10:00,39.5,35.7,29.93,North,360,2.0,12.0,86,0.03,,FEW250,0.03,VWS V14.01,2013-04-25 10:10:00,
2013-04-25 05:13:00,39.4,35.9,29.93,WSW,241,1.0,12.0,87,0.03,,BKN100,0.03,VWS V14.01,2013-04-25 10:13:00,
2013-04-25 05:15:00,39.4,35.9,29.93,SW,236,6.0,12.0,87,0.03,,FEW250,0.03,VWS V14.01,2013-04-25 10:15:00,
2013-04-25 05:18:00,39.3,35.8,29.93,WSW,252,2.0,12.0,87,0.03,,BKN100,0.03,VWS V14.01,2013-04-25 10:18:00,
2013-04-25 05:20:00,39.3,35.5,29.93,North,360,1.0,12.0,86,0.03,,FEW250,0.03,VWS V14.01,2013-04-25 10:20:00,
2013-04-25 05:23:00,39.2,35.4,29.93,North,360,8.0,15.0,86,0.03,,BKN100,0.03,VWS V14.01,2013-04-25 10:23:00,
2013-04-25 05:25:00,39.2,35.7,29.93,North,360,1.0,15.0,87,0.03,,FEW250,0.03,VWS V14.01,2013-04-25 10:25:00,
2013-04-25 05:28:00,39.1,35.3,29.94,SW,215,1.0,14.0,86,0.03,,BKN100,0.03,VWS V14.01,2013-04-25 10:28:00,
2013-04-25 05:30:00,39.0,35.2,29.94,North,360,0.0,14.0,86,0.03,,FEW250,0.03,VWS V14.01,2013-04-25 10:30:00,
2013-04-25 05:33:00,38.9,35.4,29.94,SW,220,1.0,15.0,87,0.03,,BKN100,0.03,VWS V14.01,2013-04-25 10:33:00,
2013-04-25 05:35:00,38.9,35.4,29.94,SW,214,4.0,15.0,87,0.03,,FEW250,0.03,VWS V14.01,2013-04-25 10:35:00,
2013-04-25 05:38:00,38.8,35.3,29.94,North,360,1.0,12.0,87,0.03,,BKN100,0.03,VWS V14.01,2013-04-25 10:38:00,
2013-04-25 05:40:00,38.8,36.7,29.94,North,360,0.0,8.0,92,0.03,,FEW250,0.03,VWS V14.01,2013-04-25 10:40:00,
2013-04-25 05:43:00,38.7,35.2,29.95,North,360,2.0,12.0,87,0.03,,BKN100,0.03,VWS V14.01,2013-04-25 10:43:00,
2013-04-25 05:45:00,38.7,35.2,29.95,WSW,248,13.0,15.0,87,0.03,,FEW250,0.03,VWS V14.01,2013-04-25 10:45:00,
2013-04-25 05:48:00,38.6,35.4,29.95,West,267,17.0,20.0,88,0.03,,BKN100,0.03,VWS V14.01,2013-04-25 10:48:00,
2013-04-25 05:50:00,38.6,35.4,29.95,West,281,12.0,20.0,88,0.03,,FEW250,0.03,VWS V14.01,2013-04-25 10:50:00,
2013-04-25 05:53:00,38.5,35.0,29.96,West,273,11.0,22.0,87,0.04,,BKN100,0.04,VWS V14.01,2013-04-25 10:53:00,
2013-04-25 05:55:00,38.5,35.0,29.96,WNW,300,13.0,22.0,87,0.04,,FEW250,0.04,VWS V14.01,2013-04-25 10:55:00,
2013-04-25 05:58:00,37.8,34.6,29.96,North,360,14.0,19.0,88,0.02,,BKN100,0.04,VWS V14.01,2013-04-25 10:58:00,
2013-04-25 06:00:00,37.8,34.6,29.96,West,277,14.0,19.0,88,0.02,,FEW250,0.04,VWS V14.01,2013-04-25 11:00:00,
2013-04-25 06:04:00,37.3,34.4,29.96,North,360,8.0,16.0,89,0.01,,-RA,0.04,VWS V14.01,2013-04-25 11:04:00,
2013-04-25 06:05:00,37.3,34.4,29.96,West,270,8.0,16.0,89,0.01,,FEW250,0.04,VWS V14.01,2013-04-25 11:05:00,
2013-04-25 06:09:00,37.2,34.3,29.96,North,360,8.0,12.0,89,0.01,,-RA,0.04,VWS V14.01,2013-04-25 11:09:00,
2013-04-25 06:10:00,37.2,34.3,29.96,North,360,9.0,12.0,89,0.01,,FEW250,0.04,VWS V14.01,2013-04-25 11:10:00,
2013-04-25 06:14:00,37.1,34.4,29.97,WNW,287,5.0,12.0,90,0.01,,-RA,0.04,VWS V14.01,2013-04-25 11:14:00,
2013-04-25 06:15:00,37.1,34.4,29.97,WNW,287,5.0,12.0,90,0.01,,FEW250,0.04,VWS V14.01,2013-04-25 11:15:00,
2013-04-25 06:19:00,37.1,34.4,29.97,West,265,1.0,11.0,90,0.01,,-RA,0.04,VWS V14.01,2013-04-25 11:19:00,
2013-04-25 06:20:00,37.1,34.4,29.97,WNW,288,7.0,11.0,90,0.01,,FEW250,0.04,VWS V14.01,2013-04-25 11:20:00,
2013-04-25 06:24:00,37.2,34.5,29.97,North,360,7.0,13.0,90,0.01,,-RA,0.04,VWS V14.01,2013-04-25 11:24:00,
2013-04-25 06:25:00,37.2,34.5,29.97,North,360,2.0,13.0,90,0.01,,FEW250,0.04,VWS V14.01,2013-04-25 11:25:00,
2013-04-25 06:29:00,37.3,34.4,29.97,WSW,245,6.0,11.0,89,0.01,,-RA,0.04,VWS V14.01,2013-04-25 11:29:00,
2013-04-25 06:30:00,37.3,34.4,29.97,West,266,7.0,11.0,89,0.01,,FEW250,0.04,VWS V14.01,2013-04-25 11:30:00,
2013-04-25 06:34:00,37.3,34.4,29.98,North,360,8.0,14.0,89,0.01,,-RA,0.04,VWS V14.01,2013-04-25 11:34:00,
2013-04-25 06:35:00,37.3,34.4,29.98,West,267,1.0,14.0,89,0.01,,FEW250,0.04,VWS V14.01,2013-04-25 11:35:00,
2013-04-25 06:39:00,37.4,34.5,29.98,North,360,8.0,11.0,89,0.01,,-RA,0.04,VWS V14.01,2013-04-25 11:39:00,
2013-04-25 06:40:00,37.4,34.5,29.98,West,263,6.0,11.0,89,0.01,,SCT250,0.04,VWS V14.01,2013-04-25 11:40:00,
2013-04-25 06:44:00,37.5,34.6,29.98,WSW,254,7.0,10.0,89,0.01,,-RA,0.04,VWS V14.01,2013-04-25 11:44:00,
2013-04-25 06:45:00,37.5,34.6,29.98,West,267,7.0,10.0,89,0.01,,FEW250,0.04,VWS V14.01,2013-04-25 11:45:00,
2013-04-25 06:49:00,37.7,34.8,29.98,West,267,5.0,11.0,89,0.01,,-RA,0.04,VWS V14.01,2013-04-25 11:49:00,
2013-04-25 06:50:00,37.7,34.8,29.98,West,261,2.0,11.0,89,0.01,,FEW250,0.04,VWS V14.01,2013-04-25 11:50:00,
2013-04-25 06:54:00,38.0,35.0,29.98,WNW,288,8.0,11.0,89,0.00,,-RA,0.04,VWS V14.01,2013-04-25 11:54:00,
2013-04-25 06:55:00,37.9,35.0,29.98,West,272,2.0,11.0,89,0.01,,FEW250,0.04,VWS V14.01,2013-04-25 11:55:00,
2013-04-25 06:59:00,38.2,35.0,29.98,North,360,7.0,12.0,88,0.00,,-RA,0.04,VWS V14.01,2013-04-25 11:59:00,
2013-04-25 07:00:00,38.2,35.0,29.98,West,272,8.0,12.0,88,0.00,,FEW250,0.04,VWS V14.01,2013-04-25 12:00:00,
2013-04-25 07:04:00,38.6,35.4,29.98,NW,304,9.0,13.0,88,0.00,,BKN065,0.04,VWS V14.01,2013-04-25 12:04:00,
2013-04-25 07:05:00,38.6,35.4,29.98,North,360,5.0,10.0,88,0.00,,FEW250,0.04,VWS V14.01,2013-04-25 12:05:00,
2013-04-25 07:09:00,39.0,35.5,29.99,North,360,9.0,12.0,87,0.00,,BKN065,0.04,VWS V14.01,2013-04-25 12:09:00,
2013-04-25 07:10:00,38.9,35.4,29.99,West,279,7.0,13.0,87,0.00,,FEW250,0.04,VWS V14.01,2013-04-25 12:10:00,
2013-04-25 07:14:00,39.2,35.4,29.99,West,275,8.0,13.0,86,0.00,,BKN065,0.04,VWS V14.01,2013-04-25 12:14:00,
2013-04-25 07:15:00,39.3,35.8,29.99,West,263,6.0,11.0,87,0.00,,FEW250,0.04,VWS V14.01,2013-04-25 12:15:00,
2013-04-25 07:19:00,39.4,35.3,29.99,WNW,299,3.0,15.0,85,0.00,,BKN065,0.04,VWS V14.01,2013-04-25 12:19:00,
2013-04-25 07:20:00,39.4,35.3,29.99,West,267,8.0,15.0,85,0.00,,FEW250,0.04,VWS V14.01,2013-04-25 12:20:00,
2013-04-25 07:25:00,39.6,35.5,29.99,West,279,14.0,14.0,85,0.00,,BKN065,0.04,VWS V14.01,2013-04-25 12:25:00,
2013-04-25 07:30:00,39.8,35.7,29.99,North,360,7.0,13.0,85,0.00,,BKN065,0.04,VWS V14.01,2013-04-25 12:30:00,
2013-04-25 07:35:00,40.0,35.6,29.99,WNW,288,5.0,15.0,84,0.00,,BKN065,0.04,VWS V14.01,2013-04-25 12:35:00,
2013-04-25 07:40:00,40.3,35.9,30.00,West,275,6.0,13.0,84,0.00,,BKN065,0.04,VWS V14.01,2013-04-25 12:40:00,
2013-04-25 07:45:00,40.5,35.5,30.00,North,360,9.0,17.0,82,0.00,,BKN065,0.04,VWS V14.01,2013-04-25 12:45:00,
2013-04-25 07:50:00,40.5,35.5,30.00,WNW,292,13.0,17.0,82,0.00,,BKN065,0.04,VWS V14.01,2013-04-25 12:50:00,
2013-04-25 07:55:00,40.7,35.6,30.01,WNW,285,3.0,15.0,82,0.00,,BKN065,0.04,VWS V14.01,2013-04-25 12:55:00,
2013-04-25 08:00:00,40.5,34.5,30.01,West,277,3.0,18.0,79,0.00,,BKN065,0.04,VWS V14.01,2013-04-25 13:00:00,
2013-04-25 08:05:00,40.7,34.4,30.01,WNW,294,7.0,15.0,78,0.00,,BKN070,0.04,VWS V14.01,2013-04-25 13:05:00,
2013-04-25 08:10:00,41.0,34.7,30.01,West,263,15.0,19.0,78,0.00,,BKN070,0.04,VWS V14.01,2013-04-25 13:10:00,
2013-04-25 08:15:00,41.3,34.7,30.02,WNW,283,7.0,16.0,77,0.00,,BKN070,0.04,VWS V14.01,2013-04-25 13:15:00,
2013-04-25 08:20:00,41.4,35.1,30.02,WNW,290,4.0,17.0,78,0.00,,BKN070,0.04,VWS V14.01,2013-04-25 13:20:00,
2013-04-25 08:25:00,41.1,34.5,30.02,WNW,285,12.0,16.0,77,0.00,,BKN070,0.04,VWS V14.01,2013-04-25 13:25:00,
2013-04-25 08:30:00,40.9,34.6,30.03,WNW,291,12.0,18.0,78,0.00,,BKN070,0.04,VWS V14.01,2013-04-25 13:30:00,
2013-04-25 08:35:00,40.9,33.9,30.03,NW,304,9.0,18.0,76,0.00,,FEW250,0.04,VWS V14.01,2013-04-25 13:35:00,
2013-04-25 08:36:00,40.9,33.9,30.03,North,360,16.0,17.0,76,0.00,,BKN070,0.04,VWS V14.01,2013-04-25 13:36:00,
2013-04-25 08:40:00,40.9,33.9,30.03,West,267,18.0,18.0,76,0.00,,FEW250,0.04,VWS V14.01,2013-04-25 13:40:00,
2013-04-25 08:41:00,40.9,33.9,30.03,North,360,16.0,18.0,76,0.00,,BKN070,0.04,VWS V14.01,2013-04-25 13:41:00,
2013-04-25 08:45:00,41.0,34.0,30.03,North,360,11.0,21.0,76,0.00,,FEW250,0.04,VWS V14.01,2013-04-25 13:45:00,
2013-04-25 08:46:00,41.2,34.2,30.03,West,281,6.0,21.0,76,0.00,,BKN070,0.04,VWS V14.01,2013-04-25 13:46:00,
2013-04-25 08:50:00,41.8,35.5,30.04,West,259,1.0,16.0,78,0.00,,FEW250,0.04,VWS V14.01,2013-04-25 13:50:00,
2013-04-25 08:51:00,42.0,36.0,30.04,WSW,249,7.0,11.0,79,0.00,,BKN070,0.04,VWS V14.01,2013-04-25 13:51:00,
2013-04-25 08:55:00,41.5,35.5,30.04,North,360,9.0,15.0,79,0.00,,FEW250,0.04,VWS V14.01,2013-04-25 13:55:00,
2013-04-25 08:56:00,41.1,35.4,30.04,WSW,250,11.0,15.0,80,0.00,,BKN070,0.04,VWS V14.01,2013-04-25 13:56:00,
2013-04-25 09:00:00,41.1,36.0,30.04,West,261,2.0,12.0,82,0.00,,FEW250,0.04,VWS V14.01,2013-04-25 14:00:00,
2013-04-25 09:01:00,41.0,35.6,30.04,North,360,9.0,19.0,81,0.00,,BKN035,0.04,VWS V14.01,2013-04-25 14:01:00,
2013-04-25 09:05:00,41.0,35.3,30.04,West,267,11.0,19.0,80,0.00,,FEW250,0.04,VWS V14.01,2013-04-25 14:05:00,
2013-04-25 09:06:00,41.2,35.5,30.04,North,360,9.0,15.0,80,0.00,,BKN035,0.04,VWS V14.01,2013-04-25 14:06:00,
2013-04-25 09:10:00,41.4,35.4,30.04,North,360,7.0,15.0,79,0.00,,FEW250,0.04,VWS V14.01,2013-04-25 14:10:00,
2013-04-25 09:11:00,41.7,35.4,30.05,WNW,287,6.0,16.0,78,0.00,,BKN035,0.04,VWS V14.01,2013-04-25 14:11:00,
2013-04-25 09:15:00,41.8,35.1,30.05,West,267,13.0,16.0,77,0.00,,FEW250,0.04,VWS V14.01,2013-04-25 14:15:00,
2013-04-25 09:16:00,42.0,35.0,30.05,West,267,8.0,16.0,76,0.00,,BKN035,0.04,VWS V14.01,2013-04-25 14:16:00,
2013-04-25 09:20:00,42.2,34.9,30.05,North,360,11.0,19.0,75,0.00,,FEW250,0.04,VWS V14.01,2013-04-25 14:20:00,
2013-04-25 09:21:00,42.4,34.4,30.05,WNW,284,6.0,19.0,73,0.00,,BKN035,0.04,VWS V14.01,2013-04-25 14:21:00,
2013-04-25 09:25:00,43.0,35.0,30.05,WNW,295,7.0,15.0,73,0.00,,FEW250,0.04,VWS V14.01,2013-04-25 14:25:00,
2013-04-25 09:26:00,43.2,35.1,30.05,WNW,295,12.0,18.0,73,0.00,,BKN035,0.04,VWS V14.01,2013-04-25 14:26:00,
2013-04-25 09:30:00,43.0,34.2,30.05,SSW,212,12.0,22.0,71,0.00,,FEW250,0.04,VWS V14.01,2013-04-25 14:30:00,
2013-04-25 09:31:00,42.4,32.6,30.05,North,360,12.0,22.0,68,0.00,,BKN035,0.04,VWS V14.01,2013-04-25 14:31:00,
2013-04-25 09:35:00,42.4,33.0,30.06,North,360,14.0,21.0,69,0.00,,FEW250,0.04,VWS V14.01,2013-04-25 14:35:00,
2013-04-25 09:36:00,42.9,33.8,30.06,WNW,289,10.0,18.0,70,0.00,,BKN035,0.04,VWS V14.01,2013-04-25 14:36:00,
2013-04-25 09:40:00,43.1,33.6,30.06,West,270,11.0,15.0,69,0.00,,SCT250,0.04,VWS V14.01,2013-04-25 14:40:00,
2013-04-25 09:41:00,43.4,33.6,30.06,WNW,290,8.0,14.0,68,0.00,,BKN035,0.04,VWS V14.01,2013-04-25 14:41:00,
2013-04-25 09:45:00,43.5,33.3,30.06,NW,319,17.0,19.0,67,0.00,,FEW250,0.04,VWS V14.01,2013-04-25 14:45:00,
2013-04-25 09:47:00,43.6,33.0,30.06,NW,320,11.0,21.0,66,0.00,,BKN035,0.04,VWS V14.01,2013-04-25 14:47:00,
2013-04-25 09:50:00,43.6,32.6,30.06,NW,322,6.0,22.0,65,0.00,,FEW250,0.04,VWS V14.01,2013-04-25 14:50:00,
2013-04-25 09:52:00,43.7,33.5,30.07,West,260,16.0,22.0,67,0.00,,BKN035,0.04,VWS V14.01,2013-04-25 14:52:00,
2013-04-25 09:55:00,43.6,33.0,30.07,North,360,14.0,17.0,66,0.00,,FEW250,0.04,VWS V14.01,2013-04-25 14:55:00,
2013-04-25 09:57:00,43.2,32.2,30.07,WSW,250,17.0,25.0,65,0.00,,BKN035,0.04,VWS V14.01,2013-04-25 14:57:00,
2013-04-25 10:00:00,43.1,32.5,30.07,WNW,289,10.0,25.0,66,0.00,,FEW250,0.04,VWS V14.01,2013-04-25 15:00:00,
2013-04-25 10:02:00,43.0,32.1,30.07,WNW,284,11.0,22.0,65,0.00,,SCT032,0.04,VWS V14.01,2013-04-25 15:02:00,
2013-04-25 10:05:00,42.9,32.3,30.07,WNW,300,8.0,22.0,66,0.00,,FEW250,0.04,VWS V14.01,2013-04-25 15:05:00,
2013-04-25 10:07:00,43.1,31.8,30.07,WNW,300,23.0,23.0,64,0.00,,SCT032,0.04,VWS V14.01,2013-04-25 15:07:00,
2013-04-25 10:10:00,43.3,31.6,30.07,WNW,288,16.0,27.0,63,0.00,,FEW250,0.04,VWS V14.01,2013-04-25 15:10:00,
2013-04-25 10:12:00,43.7,32.3,30.08,West,276,10.0,24.0,64,0.00,,SCT032,0.04,VWS V14.01,2013-04-25 15:12:00,
2013-04-25 10:15:00,44.0,32.2,30.08,North,360,14.0,22.0,63,0.00,,FEW250,0.04,VWS V14.01,2013-04-25 15:15:00,
2013-04-25 10:17:00,44.4,32.6,30.08,WNW,290,8.0,23.0,63,0.00,,SCT032,0.04,VWS V14.01,2013-04-25 15:17:00,
2013-04-25 10:20:00,44.5,32.7,30.08,WNW,294,8.0,23.0,63,0.00,,FEW250,0.04,VWS V14.01,2013-04-25 15:20:00,
2013-04-25 10:22:00,45.0,33.2,30.08,North,360,15.0,19.0,63,0.00,,SCT032,0.04,VWS V14.01,2013-04-25 15:22:00,
2013-04-25 10:25:00,45.0,32.8,30.08,WNW,295,14.0,19.0,62,0.00,,FEW250,0.04,VWS V14.01,2013-04-25 15:25:00,
2013-04-25 10:27:00,45.0,33.2,30.08,North,360,15.0,18.0,63,0.00,,SCT032,0.04,VWS V14.01,2013-04-25 15:27:00,
2013-04-25 10:30:00,44.9,32.7,30.09,North,360,17.0,18.0,62,0.00,,FEW250,0.04,VWS V14.01,2013-04-25 15:30:00,
2013-04-25 10:32:00,44.3,31.7,30.09,WNW,282,12.0,23.0,61,0.00,,SCT032,0.04,VWS V14.01,2013-04-25 15:32:00,
2013-04-25 10:35:00,44.2,31.2,30.09,West,281,16.0,27.0,60,0.00,,FEW250,0.04,VWS V14.01,2013-04-25 15:35:00,
2013-04-25 10:37:00,44.6,32.0,30.09,West,277,15.0,27.0,61,0.00,,SCT032,0.04,VWS V14.01,2013-04-25 15:37:00,
2013-04-25 10:40:00,44.9,31.9,30.09,North,360,5.0,23.0,60,0.00,,FEW250,0.04,VWS V14.01,2013-04-25 15:40:00,
2013-04-25 10:42:00,45.7,33.4,30.09,NNW,332,5.0,19.0,62,0.00,,SCT032,0.04,VWS V14.01,2013-04-25 15:42:00,
2013-04-25 10:45:00,46.0,33.3,30.09,NE,34,9.0,15.0,61,0.00,,FEW250,0.04,VWS V14.01,2013-04-25 15:45:00,
2013-04-25 10:47:00,45.6,32.5,30.09,WNW,294,7.0,21.0,60,0.00,,SCT032,0.04,VWS V14.01,2013-04-25 15:47:00,
2013-04-25 10:50:00,45.5,32.8,30.09,NW,316,10.0,19.0,61,0.00,,FEW250,0.04,VWS V14.01,2013-04-25 15:50:00,
2013-04-25 10:52:00,45.4,32.8,30.09,West,280,15.0,18.0,61,0.00,,SCT032,0.04,VWS V14.01,2013-04-25 15:52:00,
2013-04-25 10:55:00,45.3,32.2,30.09,North,360,9.0,20.0,60,0.00,,FEW250,0.04,VWS V14.01,2013-04-25 15:55:00,
2013-04-25 10:58:00,45.3,31.4,30.09,WNW,287,15.0,22.0,58,0.00,,SCT032,0.04,VWS V14.01,2013-04-25 15:58:00,
2013-04-25 11:00:00,45.4,31.5,30.09,WNW,294,12.0,22.0,58,0.00,,FEW250,0.04,VWS V14.01,2013-04-25 16:00:00,
2013-04-25 11:03:00,45.9,31.5,30.09,North,360,11.0,26.0,57,0.00,,BKN044,0.04,VWS V14.01,2013-04-25 16:03:00,
2013-04-25 11:05:00,45.9,31.5,30.09,North,360,12.0,26.0,57,0.00,,FEW250,0.04,VWS V14.01,2013-04-25 16:05:00,
2013-04-25 11:08:00,46.1,31.3,30.10,NNW,331,13.0,23.0,56,0.00,,BKN044,0.04,VWS V14.01,2013-04-25 16:08:00,
2013-04-25 11:10:00,46.2,31.4,30.10,NW,306,8.0,20.0,56,0.00,,FEW250,0.04,VWS V14.01,2013-04-25 16:10:00,
2013-04-25 11:13:00,46.6,31.8,30.10,NNW,328,10.0,18.0,56,0.00,,BKN044,0.04,VWS V14.01,2013-04-25 16:13:00,
2013-04-25 11:15:00,46.5,31.7,30.10,West,271,5.0,18.0,56,0.00,,FEW250,0.04,VWS V14.01,2013-04-25 16:15:00,
2013-04-25 11:18:00,46.8,31.0,30.10,North,360,13.0,20.0,54,0.00,,BKN044,0.04,VWS V14.01,2013-04-25 16:18:00,
2013-04-25 11:20:00,46.7,30.5,30.10,NNW,334,5.0,24.0,53,0.00,,FEW250,0.04,VWS V14.01,2013-04-25 16:20:00,
2013-04-25 11:23:00,46.7,31.4,30.10,WNW,288,12.0,18.0,55,0.00,,BKN044,0.04,VWS V14.01,2013-04-25 16:23:00,
2013-04-25 11:25:00,46.8,32.0,30.10,WNW,298,16.0,18.0,56,0.00,,SCT250,0.04,VWS V14.01,2013-04-25 16:25:00,
2013-04-25 11:28:00,46.9,31.6,30.10,NNE,28,11.0,18.0,55,0.00,,BKN044,0.04,VWS V14.01,2013-04-25 16:28:00,
2013-04-25 11:30:00,46.9,31.6,30.10,NNW,331,11.0,18.0,55,0.00,,SCT250,0.04,VWS V14.01,2013-04-25 16:30:00,
2013-04-25 11:33:00,46.9,31.6,30.10,North,360,9.0,18.0,55,0.00,,BKN044,0.04,VWS V14.01,2013-04-25 16:33:00,
2013-04-25 11:35:00,47.0,31.7,30.10,West,277,14.0,18.0,55,0.00,,FEW250,0.04,VWS V14.01,2013-04-25 16:35:00,
2013-04-25 11:38:00,47.1,31.3,30.11,NW,323,16.0,23.0,54,0.00,,BKN044,0.04,VWS V14.01,2013-04-25 16:38:00,
2013-04-25 11:40:00,47.0,31.2,30.11,NW,325,12.0,23.0,54,0.00,,FEW250,0.04,VWS V14.01,2013-04-25 16:40:00,
2013-04-25 11:43:00,46.8,28.7,30.11,North,360,10.0,21.0,49,0.00,,BKN044,0.04,VWS V14.01,2013-04-25 16:43:00,
2013-04-25 11:45:00,46.8,28.2,30.11,NW,313,8.0,21.0,48,0.00,,FEW250,0.04,VWS V14.01,2013-04-25 16:45:00,
2013-04-25 11:48:00,47.2,30.0,30.11,West,279,10.0,18.0,51,0.00,,BKN044,0.04,VWS V14.01,2013-04-25 16:48:00,
2013-04-25 11:50:00,47.3,30.6,30.11,WNW,290,10.0,18.0,52,0.00,,FEW250,0.04,VWS V14.01,2013-04-25 16:50:00,
2013-04-25 11:53:00,47.5,31.7,30.11,North,350,10.0,18.0,54,0.00,,BKN044,0.04,VWS V14.01,2013-04-25 16:53:00,
2013-04-25 11:55:00,47.5,30.8,30.11,WNW,291,7.0,18.0,52,0.00,,FEW250,0.04,VWS V14.01,2013-04-25 16:55:00,
2013-04-25 11:58:00,47.4,31.6,30.11,WNW,287,8.0,17.0,54,0.00,,BKN044,0.04,VWS V14.01,2013-04-25 16:58:00,
2013-04-25 12:00:00,47.4,31.6,30.11,WNW,289,9.0,17.0,54,0.00,,FEW250,0.04,VWS V14.01,2013-04-25 17:00:00,
2013-04-25 12:03:00,47.6,31.8,30.11,WNW,290,8.0,19.0,54,0.00,,BKN055,0.04,VWS V14.01,2013-04-25 17:03:00,
2013-04-25 12:05:00,47.7,31.9,30.11,WNW,300,11.0,19.0,54,0.00,,FEW250,0.04,VWS V14.01,2013-04-25 17:05:00,
2013-04-25 12:08:00,47.7,31.0,30.11,WNW,285,6.0,18.0,52,0.00,,BKN055,0.04,VWS V14.01,2013-04-25 17:08:00,
2013-04-25 12:10:00,47.7,31.0,30.11,NW,323,8.0,18.0,52,0.00,,FEW250,0.04,VWS V14.01,2013-04-25 17:10:00,
2013-04-25 12:14:00,48.1,31.8,30.11,WNW,293,9.0,18.0,53,0.00,,BKN055,0.04,VWS V14.01,2013-04-25 17:14:00,
2013-04-25 12:15:00,48.1,31.8,30.11,NNW,328,19.0,19.0,53,0.00,,FEW250,0.04,VWS V14.01,2013-04-25 17:15:00,
2013-04-25 12:19:00,48.1,29.9,30.12,WNW,291,10.0,23.0,49,0.00,,BKN055,0.04,VWS V14.01,2013-04-25 17:19:00,
2013-04-25 12:20:00,48.1,29.9,30.12,WNW,282,12.0,23.0,49,0.00,,FEW250,0.04,VWS V14.01,2013-04-25 17:20:00,
2013-04-25 12:24:00,48.0,29.8,30.12,West,270,16.0,22.0,49,0.00,,BKN055,0.04,VWS V14.01,2013-04-25 17:24:00,
2013-04-25 12:25:00,48.0,29.8,30.12,West,270,16.0,22.0,49,0.00,,FEW250,0.04,VWS V14.01,2013-04-25 17:25:00,
2013-04-25 12:29:00,48.2,30.0,30.12,WNW,298,13.0,21.0,49,0.00,,BKN055,0.04,VWS V14.01,2013-04-25 17:29:00,
2013-04-25 12:30:00,48.2,30.0,30.12,WNW,298,13.0,21.0,49,0.00,,FEW250,0.04,VWS V14.01,2013-04-25 17:30:00,
2013-04-25 12:34:00,49.0,31.2,30.12,West,277,10.0,17.0,50,0.00,,BKN055,0.04,VWS V14.01,2013-04-25 17:34:00,
2013-04-25 12:35:00,49.0,31.2,30.12,West,277,10.0,17.0,50,0.00,,FEW250,0.04,VWS V14.01,2013-04-25 17:35:00,
2013-04-25 12:39:00,48.7,29.9,30.12,WSW,253,11.0,23.0,48,0.00,,BKN055,0.04,VWS V14.01,2013-04-25 17:39:00,
2013-04-25 12:40:00,48.7,29.9,30.12,WSW,253,11.0,23.0,48,0.00,,FEW250,0.04,VWS V14.01,2013-04-25 17:40:00,
2013-04-25 12:44:00,49.4,31.1,30.12,West,272,9.0,18.0,49,0.00,,BKN055,0.04,VWS V14.01,2013-04-25 17:44:00,
2013-04-25 12:45:00,49.4,31.1,30.12,West,272,9.0,18.0,49,0.00,,FEW250,0.04,VWS V14.01,2013-04-25 17:45:00,
2013-04-25 12:49:00,49.5,30.6,30.12,WNW,299,14.0,19.0,48,0.00,,BKN055,0.04,VWS V14.01,2013-04-25 17:49:00,
2013-04-25 12:50:00,49.7,30.8,30.12,West,277,15.0,19.0,48,0.00,,FEW250,0.04,VWS V14.01,2013-04-25 17:50:00,
2013-04-25 12:54:00,48.9,30.1,30.13,WNW,283,8.0,20.0,48,0.00,,BKN055,0.04,VWS V14.01,2013-04-25 17:54:00,
2013-04-25 12:55:00,49.0,30.2,30.13,North,360,14.0,20.0,48,0.00,,FEW250,0.04,VWS V14.01,2013-04-25 17:55:00,
2013-04-25 12:59:00,48.4,30.1,30.13,WNW,293,9.0,22.0,49,0.00,,BKN055,0.04,VWS V14.01,2013-04-25 17:59:00,
2013-04-25 13:00:00,48.5,30.2,30.13,WNW,293,8.0,22.0,49,0.00,,FEW250,0.04,VWS V14.01,2013-04-25 18:00:00,
2013-04-25 13:04:00,48.6,29.8,30.13,West,272,4.0,15.0,48,0.00,,BKN060,0.04,VWS V14.01,2013-04-25 18:04:00,
2013-04-25 13:05:00,48.6,29.8,30.13,WNW,300,14.0,15.0,48,0.00,,FEW250,0.04,VWS V14.01,2013-04-25 18:05:00,
2013-04-25 13:09:00,48.9,30.1,30.13,WSW,251,10.0,18.0,48,0.00,,BKN060,0.04,VWS V14.01,2013-04-25 18:09:00,
2013-04-25 13:10:00,48.9,30.1,30.13,North,360,13.0,18.0,48,0.00,,FEW250,0.04,VWS V14.01,2013-04-25 18:10:00,
2013-04-25 13:14:00,48.2,30.0,30.13,NW,304,11.0,21.0,49,0.00,,BKN060,0.04,VWS V14.01,2013-04-25 18:14:00,
2013-04-25 13:15:00,48.2,30.0,30.13,West,273,8.0,21.0,49,0.00,,FEW250,0.04,VWS V14.01,2013-04-25 18:15:00,
2013-04-25 13:19:00,48.4,29.1,30.14,West,268,11.0,18.0,47,0.00,,BKN060,0.04,VWS V14.01,2013-04-25 18:19:00,
2013-04-25 13:20:00,48.3,29.0,30.14,West,273,9.0,18.0,47,0.00,,FEW250,0.04,VWS V14.01,2013-04-25 18:20:00,
2013-04-25 13:25:00,49.5,30.1,30.14,WNW,292,7.0,24.0,47,0.00,,BKN060,0.04,VWS V14.01,2013-04-25 18:25:00,
2013-04-25 13:30:00,49.2,28.2,30.14,WNW,290,8.0,20.0,44,0.00,,BKN060,0.04,VWS V14.01,2013-04-25 18:30:00,
2013-04-25 13:35:00,49.5,29.6,30.14,WNW,282,9.0,20.0,46,0.00,,BKN060,0.04,VWS V14.01,2013-04-25 18:35:00,
2013-04-25 13:40:00,49.1,29.8,30.14,WNW,298,15.0,21.0,47,0.00,,BKN060,0.04,VWS V14.01,2013-04-25 18:40:00,
2013-04-25 13:45:00,50.0,29.0,30.14,West,271,5.0,16.0,44,0.00,,BKN060,0.04,VWS V14.01,2013-04-25 18:45:00,
2013-04-25 13:50:00,50.3,29.2,30.14,North,360,5.0,15.0,44,0.00,,BKN060,0.04,VWS V14.01,2013-04-25 18:50:00,
2013-04-25 13:55:00,51.0,29.9,30.15,North,360,8.0,18.0,44,0.00,,BKN060,0.04,VWS V14.01,2013-04-25 18:55:00,
2013-04-25 14:00:00,50.7,30.1,30.15,North,360,11.0,18.0,45,0.00,,BKN060,0.04,VWS V14.01,2013-04-25 19:00:00,
2013-04-25 14:05:00,49.8,29.3,30.15,NW,309,6.0,16.0,45,0.00,,SCT065,0.04,VWS V14.01,2013-04-25 19:05:00,
2013-04-25 14:10:00,49.6,30.2,30.15,West,274,12.0,15.0,47,0.00,,SCT065,0.04,VWS V14.01,2013-04-25 19:10:00,
2013-04-25 14:15:00,49.4,29.5,30.15,West,271,7.0,15.0,46,0.00,,SCT065,0.04,VWS V14.01,2013-04-25 19:15:00,
2013-04-25 14:20:00,49.7,27.6,30.15,North,360,4.0,19.0,42,0.00,,SCT065,0.04,VWS V14.01,2013-04-25 19:20:00,
2013-04-25 14:25:00,50.8,29.1,30.16,West,281,8.0,17.0,43,0.00,,SCT065,0.04,VWS V14.01,2013-04-25 19:25:00,
2013-04-25 14:30:00,50.6,29.0,30.16,North,360,12.0,18.0,43,0.00,,FEW250,0.04,VWS V14.01,2013-04-25 19:30:00,
2013-04-25 14:31:00,50.4,28.8,30.16,NW,304,15.0,18.0,43,0.00,,SCT065,0.04,VWS V14.01,2013-04-25 19:31:00,
2013-04-25 14:35:00,49.8,28.2,30.16,WNW,291,9.0,17.0,43,0.00,,FEW250,0.04,VWS V14.01,2013-04-25 19:35:00,
2013-04-25 14:36:00,49.7,28.7,30.16,NW,319,2.0,14.0,44,0.00,,SCT065,0.04,VWS V14.01,2013-04-25 19:36:00,
2013-04-25 14:40:00,49.6,29.1,30.16,WNW,300,11.0,14.0,45,0.00,,FEW250,0.04,VWS V14.01,2013-04-25 19:40:00,
2013-04-25 14:41:00,49.4,29.5,30.16,WNW,283,10.0,14.0,46,0.00,,SCT065,0.04,VWS V14.01,2013-04-25 19:41:00,
2013-04-25 14:45:00,49.2,29.9,30.16,West,265,6.0,12.0,47,0.00,,FEW250,0.04,VWS V14.01,2013-04-25 19:45:00,
2013-04-25 14:46:00,49.3,29.9,30.16,WNW,294,12.0,12.0,47,0.00,,SCT065,0.04,VWS V14.01,2013-04-25 19:46:00,
2013-04-25 14:50:00,49.3,29.9,30.16,North,360,4.0,15.0,47,0.00,,FEW250,0.04,VWS V14.01,2013-04-25 19:50:00,
2013-04-25 14:51:00,49.1,30.3,30.16,West,269,3.0,15.0,48,0.00,,SCT065,0.04,VWS V14.01,2013-04-25 19:51:00,
2013-04-25 14:55:00,49.3,32.4,30.16,NW,309,2.0,11.0,52,0.00,,FEW250,0.04,VWS V14.01,2013-04-25 19:55:00,
2013-04-25 14:56:00,49.3,31.0,30.17,NW,304,6.0,11.0,49,0.00,,SCT065,0.04,VWS V14.01,2013-04-25 19:56:00,
2013-04-25 15:00:00,49.1,30.3,30.16,West,273,3.0,15.0,48,0.00,,FEW250,0.04,VWS V14.01,2013-04-25 20:00:00,
2013-04-25 15:01:00,48.9,30.6,30.16,WSW,257,5.0,15.0,49,0.00,,BKN075,0.04,VWS V14.01,2013-04-25 20:01:00,
2013-04-25 15:05:00,49.1,31.3,30.16,North,360,2.0,9.0,50,0.00,,FEW250,0.04,VWS V14.01,2013-04-25 20:05:00,
2013-04-25 15:06:00,49.7,31.3,30.16,WNW,284,3.0,14.0,49,0.00,,BKN075,0.04,VWS V14.01,2013-04-25 20:06:00,
2013-04-25 15:10:00,49.7,29.2,30.16,North,360,2.0,14.0,45,0.00,,FEW250,0.04,VWS V14.01,2013-04-25 20:10:00,
2013-04-25 15:11:00,49.5,29.1,30.16,North,360,6.0,14.0,45,0.00,,BKN075,0.04,VWS V14.01,2013-04-25 20:11:00,
2013-04-25 15:15:00,49.4,29.5,30.16,West,273,5.0,12.0,46,0.00,,FEW250,0.04,VWS V14.01,2013-04-25 20:15:00,
2013-04-25 15:16:00,49.3,29.9,30.16,North,360,10.0,13.0,47,0.00,,BKN075,0.04,VWS V14.01,2013-04-25 20:16:00,
2013-04-25 15:20:00,49.3,30.5,30.16,North,360,3.0,14.0,48,0.00,,FEW250,0.04,VWS V14.01,2013-04-25 20:20:00,
2013-04-25 15:21:00,49.5,30.6,30.16,North,360,10.0,13.0,48,0.00,,BKN075,0.04,VWS V14.01,2013-04-25 20:21:00,
2013-04-25 15:25:00,49.5,31.1,30.16,West,277,1.0,13.0,49,0.00,,FEW250,0.04,VWS V14.01,2013-04-25 20:25:00,
2013-04-25 15:26:00,49.6,31.2,30.16,WNW,290,7.0,8.0,49,0.00,,BKN075,0.04,VWS V14.01,2013-04-25 20:26:00,
2013-04-25 15:30:00,49.7,29.8,30.16,West,261,3.0,13.0,46,0.00,,FEW250,0.04,VWS V14.01,2013-04-25 20:30:00,
2013-04-25 15:31:00,50.1,30.1,30.16,NW,315,10.0,13.0,46,0.00,,BKN075,0.04,VWS V14.01,2013-04-25 20:31:00,
2013-04-25 15:35:00,50.3,30.3,30.16,North,360,4.0,12.0,46,0.00,,FEW250,0.04,VWS V14.01,2013-04-25 20:35:00,
2013-04-25 15:36:00,50.8,30.8,30.16,North,360,14.0,18.0,46,0.00,,BKN075,0.04,VWS V14.01,2013-04-25 20:36:00,
2013-04-25 15:40:00,51.2,29.5,30.16,WSW,243,3.0,18.0,43,0.00,,FEW250,0.04,VWS V14.01,2013-04-25 20:40:00,
2013-04-25 15:41:00,51.4,29.1,30.16,West,278,5.0,18.0,42,0.00,,BKN075,0.04,VWS V14.01,2013-04-25 20:41:00,
2013-04-25 15:45:00,51.7,29.4,30.16,North,360,11.0,18.0,42,0.00,,FEW250,0.04,VWS V14.01,2013-04-25 20:45:00,
2013-04-25 15:47:00,51.8,29.5,30.16,West,259,1.0,18.0,42,0.00,,BKN075,0.04,VWS V14.01,2013-04-25 20:47:00,
2013-04-25 15:50:00,52.2,30.4,30.16,West,273,8.0,18.0,43,0.00,,FEW250,0.04,VWS V14.01,2013-04-25 20:50:00,
2013-04-25 15:52:00,52.2,29.8,30.16,West,278,10.0,16.0,42,0.00,,BKN075,0.04,VWS V14.01,2013-04-25 20:52:00,
2013-04-25 15:55:00,52.1,30.3,30.16,North,360,13.0,16.0,43,0.00,,FEW250,0.04,VWS V14.01,2013-04-25 20:55:00,
2013-04-25 15:57:00,51.8,29.5,30.16,North,360,4.0,18.0,42,0.00,,BKN075,0.04,VWS V14.01,2013-04-25 20:57:00,
2013-04-25 16:00:00,52.1,29.1,30.16,West,279,7.0,16.0,41,0.00,,SCT250,0.04,VWS V14.01,2013-04-25 21:00:00,
2013-04-25 16:02:00,52.0,27.8,30.16,West,261,11.0,15.0,39,0.00,,SCT050,0.04,VWS V14.01,2013-04-25 21:02:00,
2013-04-25 16:05:00,51.9,29.0,30.16,North,360,2.0,15.0,41,0.00,,FEW250,0.04,VWS V14.01,2013-04-25 21:05:00,
2013-04-25 16:07:00,52.3,29.9,30.16,North,360,2.0,12.0,42,0.00,,SCT050,0.04,VWS V14.01,2013-04-25 21:07:00,
2013-04-25 16:10:00,52.1,29.1,30.16,SW,225,6.0,15.0,41,0.00,,FEW250,0.04,VWS V14.01,2013-04-25 21:10:00,
2013-04-25 16:12:00,52.2,29.2,30.16,WSW,250,4.0,15.0,41,0.00,,SCT050,0.04,VWS V14.01,2013-04-25 21:12:00,
2013-04-25 16:15:00,52.1,27.9,30.16,NW,304,10.0,16.0,39,0.00,,FEW250,0.04,VWS V14.01,2013-04-25 21:15:00,
2013-04-25 16:17:00,51.9,27.7,30.16,SW,217,3.0,16.0,39,0.00,,SCT050,0.04,VWS V14.01,2013-04-25 21:17:00,
2013-04-25 16:20:00,52.2,28.0,30.16,West,263,2.0,16.0,39,0.00,,FEW250,0.04,VWS V14.01,2013-04-25 21:20:00,
2013-04-25 16:22:00,52.8,29.8,30.16,North,360,10.0,10.0,41,0.00,,SCT050,0.04,VWS V14.01,2013-04-25 21:22:00,
2013-04-25 16:25:00,52.7,29.7,30.16,West,273,3.0,14.0,41,0.00,,FEW250,0.04,VWS V14.01,2013-04-25 21:25:00,
2013-04-25 16:27:00,52.2,29.2,30.16,WSW,246,3.0,12.0,41,0.00,,SCT050,0.04,VWS V14.01,2013-04-25 21:27:00,
2013-04-25 16:30:00,51.9,29.5,30.16,SW,219,3.0,12.0,42,0.00,,FEW250,0.04,VWS V14.01,2013-04-25 21:30:00,
2013-04-25 16:32:00,51.3,29.0,30.16,North,360,1.0,12.0,42,0.00,,SCT050,0.04,VWS V14.01,2013-04-25 21:32:00,
2013-04-25 16:35:00,51.5,29.8,30.16,North,360,7.0,12.0,43,0.00,,SCT250,0.04,VWS V14.01,2013-04-25 21:35:00,
2013-04-25 16:37:00,51.5,29.2,30.16,WSW,244,5.0,10.0,42,0.00,,SCT050,0.04,VWS V14.01,2013-04-25 21:37:00,
2013-04-25 16:40:00,51.5,29.2,30.16,SW,227,6.0,10.0,42,0.00,,FEW250,0.04,VWS V14.01,2013-04-25 21:40:00,
2013-04-25 16:42:00,52.2,28.6,30.17,North,360,4.0,13.0,40,0.00,,SCT050,0.04,VWS V14.01,2013-04-25 21:42:00,
2013-04-25 16:45:00,52.3,28.7,30.17,North,360,11.0,16.0,40,0.00,,SCT250,0.04,VWS V14.01,2013-04-25 21:45:00,
2013-04-25 16:47:00,52.3,29.3,30.16,North,360,10.0,19.0,41,0.00,,SCT050,0.04,VWS V14.01,2013-04-25 21:47:00,
2013-04-25 16:50:00,52.3,29.3,30.16,North,360,12.0,19.0,41,0.00,,SCT250,0.04,VWS V14.01,2013-04-25 21:50:00,
2013-04-25 16:52:00,52.4,29.4,30.16,North,360,11.0,19.0,41,0.00,,SCT050,0.04,VWS V14.01,2013-04-25 21:52:00,
2013-04-25 16:55:00,52.1,29.1,30.17,North,360,15.0,20.0,41,0.00,,FEW250,0.04,VWS V14.01,2013-04-25 21:55:00,
2013-04-25 16:57:00,51.6,29.3,30.17,North,360,9.0,17.0,42,0.00,,SCT050,0.04,VWS V14.01,2013-04-25 21:57:00,
2013-04-25 17:00:00,51.4,29.1,30.17,SW,232,9.0,17.0,42,0.00,,FEW250,0.04,VWS V14.01,2013-04-25 22:00:00,
2013-04-25 17:03:00,51.0,29.3,30.17,North,360,3.0,12.0,43,0.00,,BKN080,0.04,VWS V14.01,2013-04-25 22:03:00,
2013-04-25 17:05:00,51.0,29.3,30.17,North,360,3.0,12.0,43,0.00,,FEW250,0.04,VWS V14.01,2013-04-25 22:05:00,
2013-04-25 17:08:00,50.8,29.7,30.17,WNW,301,3.0,11.0,44,0.00,,BKN080,0.04,VWS V14.01,2013-04-25 22:08:00,
2013-04-25 17:10:00,50.6,29.5,30.17,North,360,6.0,11.0,44,0.00,,FEW250,0.04,VWS V14.01,2013-04-25 22:10:00,
2013-04-25 17:13:00,50.3,29.2,30.17,West,272,5.0,7.0,44,0.00,,BKN080,0.04,VWS V14.01,2013-04-25 22:13:00,
2013-04-25 17:15:00,50.3,29.2,30.17,WSW,258,2.0,7.0,44,0.00,,FEW250,0.04,VWS V14.01,2013-04-25 22:15:00,
2013-04-25 17:18:00,50.3,29.8,30.17,West,281,3.0,7.0,45,0.00,,BKN080,0.04,VWS V14.01,2013-04-25 22:18:00,
2013-04-25 17:20:00,50.4,29.9,30.17,West,275,6.0,9.0,45,0.00,,FEW250,0.04,VWS V14.01,2013-04-25 22:20:00,
2013-04-25 17:23:00,51.1,30.0,30.17,WSW,254,3.0,9.0,44,0.00,,BKN080,0.04,VWS V14.01,2013-04-25 22:23:00,
2013-04-25 17:25:00,51.3,30.1,30.17,SSW,208,5.0,11.0,44,0.00,,FEW250,0.04,VWS V14.01,2013-04-25 22:25:00,
2013-04-25 17:28:00,52.1,29.7,30.17,WNW,290,7.0,14.0,42,0.00,,BKN080,0.04,VWS V14.01,2013-04-25 22:28:00,
2013-04-25 17:30:00,52.3,29.9,30.17,North,360,11.0,13.0,42,0.00,,FEW250,0.04,VWS V14.01,2013-04-25 22:30:00,
2013-04-25 17:33:00,52.3,29.3,30.17,SW,229,4.0,13.0,41,0.00,,BKN080,0.04,VWS V14.01,2013-04-25 22:33:00,
2013-04-25 17:35:00,52.2,29.2,30.17,SSW,212,4.0,12.0,41,0.00,,FEW250,0.04,VWS V14.01,2013-04-25 22:35:00,
2013-04-25 17:38:00,52.6,29.0,30.17,SW,232,3.0,13.0,40,0.00,,BKN080,0.04,VWS V14.01,2013-04-25 22:38:00,
2013-04-25 17:40:00,52.6,29.6,30.17,North,360,5.0,13.0,41,0.00,,FEW250,0.04,VWS V14.01,2013-04-25 22:40:00,
2013-04-25 17:43:00,52.6,29.0,30.17,North,360,7.0,15.0,40,0.00,,BKN080,0.04,VWS V14.01,2013-04-25 22:43:00,
2013-04-25 17:45:00,52.5,28.9,30.17,North,360,13.0,15.0,40,0.00,,FEW250,0.04,VWS V14.01,2013-04-25 22:45:00,
2013-04-25 17:48:00,52.4,28.8,30.17,North,360,1.0,13.0,40,0.00,,BKN080,0.04,VWS V14.01,2013-04-25 22:48:00,
2013-04-25 17:50:00,52.4,28.8,30.17,North,360,5.0,12.0,40,0.00,,FEW250,0.04,VWS V14.01,2013-04-25 22:50:00,
2013-04-25 17:53:00,52.3,28.7,30.17,West,261,7.0,13.0,40,0.00,,BKN080,0.04,VWS V14.01,2013-04-25 22:53:00,
2013-04-25 17:55:00,52.2,28.6,30.17,North,360,7.0,13.0,40,0.00,,FEW250,0.04,VWS V14.01,2013-04-25 22:55:00,
2013-04-25 17:58:00,51.2,28.3,30.18,North,360,8.0,13.0,41,0.00,,BKN080,0.04,VWS V14.01,2013-04-25 22:58:00,
2013-04-25 18:00:00,51.2,28.3,30.17,North,360,9.0,13.0,41,0.00,,FEW250,0.04,VWS V14.01,2013-04-25 23:00:00,
2013-04-25 18:03:00,50.6,28.4,30.18,WSW,250,4.0,12.0,42,0.00,,SCT060,0.04,VWS V14.01,2013-04-25 23:03:00,
2013-04-25 18:05:00,50.5,28.3,30.18,North,360,3.0,12.0,42,0.00,,FEW250,0.04,VWS V14.01,2013-04-25 23:05:00,
2013-04-25 18:09:00,50.9,28.6,30.18,North,360,6.0,7.0,42,0.00,,SCT060,0.04,VWS V14.01,2013-04-25 23:09:00,
2013-04-25 18:10:00,51.0,28.7,30.17,WSW,248,2.0,8.0,42,0.00,,FEW250,0.04,VWS V14.01,2013-04-25 23:10:00,
2013-04-25 18:14:00,51.5,29.2,30.17,WSW,258,3.0,6.0,42,0.00,,SCT060,0.04,VWS V14.01,2013-04-25 23:14:00,
2013-04-25 18:15:00,51.5,29.2,30.17,WSW,258,2.0,6.0,42,0.00,,FEW250,0.04,VWS V14.01,2013-04-25 23:15:00,
2013-04-25 18:19:00,51.6,28.1,30.18,WSW,249,10.0,14.0,40,0.00,,SCT060,0.04,VWS V14.01,2013-04-25 23:19:00,
2013-04-25 18:20:00,51.6,28.1,30.18,WSW,249,10.0,14.0,40,0.00,,FEW250,0.04,VWS V14.01,2013-04-25 23:20:00,
2013-04-25 18:24:00,51.2,27.7,30.18,North,360,7.0,14.0,40,0.00,,SCT060,0.04,VWS V14.01,2013-04-25 23:24:00,
2013-04-25 18:25:00,51.2,27.7,30.18,North,360,7.0,14.0,40,0.00,,FEW250,0.04,VWS V14.01,2013-04-25 23:25:00,
2013-04-25 18:29:00,51.3,27.8,30.18,North,360,2.0,12.0,40,0.00,,SCT060,0.04,VWS V14.01,2013-04-25 23:29:00,
2013-04-25 18:30:00,51.3,27.8,30.18,North,360,2.0,12.0,40,0.00,,FEW250,0.04,VWS V14.01,2013-04-25 23:30:00,
2013-04-25 18:34:00,51.4,27.9,30.18,North,360,4.0,12.0,40,0.00,,SCT060,0.04,VWS V14.01,2013-04-25 23:34:00,
2013-04-25 18:35:00,51.4,27.9,30.18,North,360,4.0,12.0,40,0.00,,FEW250,0.04,VWS V14.01,2013-04-25 23:35:00,
2013-04-25 18:39:00,51.3,28.4,30.18,SW,217,6.0,11.0,41,0.00,,SCT060,0.04,VWS V14.01,2013-04-25 23:39:00,
2013-04-25 18:40:00,51.3,28.4,30.18,SW,217,6.0,11.0,41,0.00,,FEW250,0.04,VWS V14.01,2013-04-25 23:40:00,
2013-04-25 18:44:00,51.3,27.8,30.18,WSW,257,5.0,13.0,40,0.00,,SCT060,0.04,VWS V14.01,2013-04-25 23:44:00,
2013-04-25 18:45:00,51.3,27.8,30.18,WSW,257,5.0,13.0,40,0.00,,FEW250,0.04,VWS V14.01,2013-04-25 23:45:00,
2013-04-25 18:49:00,51.4,28.5,30.18,North,360,6.0,10.0,41,0.00,,SCT060,0.04,VWS V14.01,2013-04-25 23:49:00,
2013-04-25 18:50:00,51.4,28.5,30.18,North,360,6.0,10.0,41,0.00,,FEW250,0.04,VWS V14.01,2013-04-25 23:50:00,
2013-04-25 18:54:00,50.9,27.5,30.18,North,360,10.0,13.0,40,0.00,,SCT060,0.04,VWS V14.01,2013-04-25 23:54:00,
2013-04-25 18:55:00,50.9,27.5,30.18,North,360,10.0,13.0,40,0.00,,FEW250,0.04,VWS V14.01,2013-04-25 23:55:00,
2013-04-25 18:59:00,50.6,27.8,30.18,North,360,7.0,13.0,41,0.00,,SCT060,0.04,VWS V14.01,2013-04-25 23:59:00,
2013-04-25 19:00:00,50.6,27.8,30.18,North,360,7.0,13.0,41,0.00,,FEW250,0.04,VWS V14.01,2013-04-26 00:00:00,
2013-04-25 19:04:00,50.5,28.9,30.18,WNW,292,7.0,8.0,43,0.00,,FEW060,0.04,VWS V14.01,2013-04-26 00:04:00,
2013-04-25 19:05:00,50.5,28.9,30.18,West,273,3.0,8.0,43,0.00,,FEW250,0.04,VWS V14.01,2013-04-26 00:05:00,
2013-04-25 19:09:00,50.2,28.0,30.18,WSW,257,3.0,13.0,42,0.00,,FEW060,0.04,VWS V14.01,2013-04-26 00:09:00,
2013-04-25 19:10:00,50.2,28.0,30.18,North,360,5.0,13.0,42,0.00,,FEW250,0.04,VWS V14.01,2013-04-26 00:10:00,
2013-04-25 19:14:00,50.1,28.5,30.18,West,276,1.0,9.0,43,0.00,,FEW060,0.04,VWS V14.01,2013-04-26 00:14:00,
2013-04-25 19:15:00,50.1,28.5,30.18,West,278,0.0,11.0,43,0.00,,FEW250,0.04,VWS V14.01,2013-04-26 00:15:00,
2013-04-25 19:19:00,50.0,27.8,30.18,SW,232,0.0,5.0,42,0.00,,FEW060,0.04,VWS V14.01,2013-04-26 00:19:00,
2013-04-25 19:20:00,50.0,27.8,30.18,SW,229,0.0,6.0,42,0.00,,FEW250,0.04,VWS V14.01,2013-04-26 00:20:00,
2013-04-25 19:25:00,49.7,27.6,30.19,North,360,1.0,11.0,42,0.00,,FEW060,0.04,VWS V14.01,2013-04-26 00:25:00,
2013-04-25 19:30:00,49.5,28.5,30.19,WSW,248,0.0,5.0,44,0.00,,FEW060,0.04,VWS V14.01,2013-04-26 00:30:00,
2013-04-25 19:35:00,49.3,28.3,30.19,WSW,246,2.0,3.0,44,0.00,,FEW060,0.04,VWS V14.01,2013-04-26 00:35:00,
2013-04-25 19:40:00,49.0,28.6,30.19,WSW,242,1.0,4.0,45,0.00,,FEW060,0.04,VWS V14.01,2013-04-26 00:40:00,
2013-04-25 19:45:00,48.8,28.4,30.19,WSW,242,0.0,1.0,45,0.00,,FEW060,0.04,VWS V14.01,2013-04-26 00:45:00,
2013-04-25 19:50:00,48.6,28.8,30.19,WSW,242,0.0,0.0,46,0.00,,FEW060,0.04,VWS V14.01,2013-04-26 00:50:00,
2013-04-25 19:55:00,48.4,28.6,30.19,WSW,242,0.0,0.0,46,0.00,,FEW060,0.04,VWS V14.01,2013-04-26 00:55:00,
2013-04-25 20:00:00,48.3,29.0,30.19,WSW,242,0.0,0.0,47,0.00,,FEW060,0.04,VWS V14.01,2013-04-26 01:00:00,
2013-04-25 20:05:00,48.0,28.8,30.19,WSW,242,0.0,0.0,47,0.00,,FEW060,0.04,VWS V14.01,2013-04-26 01:05:00,
2013-04-25 20:10:00,47.9,28.7,30.19,WSW,242,0.0,0.0,47,0.00,,FEW060,0.04,VWS V14.01,2013-04-26 01:10:00,
2013-04-25 20:15:00,47.8,29.1,30.19,WSW,242,0.0,0.0,48,0.00,,FEW060,0.04,VWS V14.01,2013-04-26 01:15:00,
2013-04-25 20:20:00,47.7,29.0,30.19,WSW,242,0.0,0.0,48,0.00,,FEW060,0.04,VWS V14.01,2013-04-26 01:20:00,
2013-04-25 20:25:00,47.6,29.4,30.20,WSW,242,0.0,0.0,49,0.00,,FEW250,0.04,VWS V14.01,2013-04-26 01:25:00,
2013-04-25 20:26:00,47.5,29.3,30.19,WSW,242,0.0,0.0,49,0.00,,FEW060,0.04,VWS V14.01,2013-04-26 01:26:00,
2013-04-25 20:30:00,47.5,29.3,30.20,WSW,242,0.0,0.0,49,0.00,,FEW250,0.04,VWS V14.01,2013-04-26 01:30:00,
2013-04-25 20:31:00,47.4,29.2,30.20,WSW,242,0.0,0.0,49,0.00,,FEW060,0.04,VWS V14.01,2013-04-26 01:31:00,
2013-04-25 20:35:00,47.4,29.2,30.20,WSW,242,0.0,0.0,49,0.00,,FEW250,0.04,VWS V14.01,2013-04-26 01:35:00,
2013-04-25 20:36:00,47.4,29.2,30.20,WSW,242,0.0,1.0,49,0.00,,FEW060,0.04,VWS V14.01,2013-04-26 01:36:00,
2013-04-25 20:40:00,47.3,29.1,30.20,WSW,242,0.0,1.0,49,0.00,,FEW250,0.04,VWS V14.01,2013-04-26 01:40:00,
2013-04-25 20:41:00,47.3,29.6,30.20,WSW,242,0.0,0.0,50,0.00,,FEW060,0.04,VWS V14.01,2013-04-26 01:41:00,
2013-04-25 20:45:00,47.2,29.5,30.20,WSW,242,0.0,0.0,50,0.00,,FEW250,0.04,VWS V14.01,2013-04-26 01:45:00,
2013-04-25 20:46:00,47.2,29.5,30.20,WSW,242,0.0,0.0,50,0.00,,FEW060,0.04,VWS V14.01,2013-04-26 01:46:00,
2013-04-25 20:50:00,47.2,29.5,30.20,WSW,242,0.0,0.0,50,0.00,,FEW250,0.04,VWS V14.01,2013-04-26 01:50:00,
2013-04-25 20:51:00,47.0,31.2,30.20,WSW,242,0.0,0.0,54,0.00,,FEW060,0.04,VWS V14.01,2013-04-26 01:51:00,
2013-04-25 20:55:00,46.7,31.0,30.20,WSW,242,0.0,0.0,54,0.00,,FEW250,0.04,VWS V14.01,2013-04-26 01:55:00,
2013-04-25 20:56:00,46.4,31.1,30.21,WSW,242,0.0,0.0,55,0.00,,FEW060,0.04,VWS V14.01,2013-04-26 01:56:00,
2013-04-25 21:00:00,46.1,31.3,30.20,WSW,242,0.0,0.0,56,0.00,,FEW250,0.04,VWS V14.01,2013-04-26 02:00:00,
2013-04-25 21:01:00,45.8,30.6,30.20,WSW,242,0.0,0.0,55,0.00,,CLR,0.04,VWS V14.01,2013-04-26 02:01:00,
2013-04-25 21:05:00,45.9,29.8,30.21,WSW,242,1.0,2.0,53,0.00,,FEW250,0.04,VWS V14.01,2013-04-26 02:05:00,
2013-04-25 21:06:00,46.1,29.5,30.21,WSW,242,1.0,2.0,52,0.00,,CLR,0.04,VWS V14.01,2013-04-26 02:06:00,
2013-04-25 21:10:00,46.3,29.6,30.21,WSW,242,1.0,2.0,52,0.00,,FEW250,0.04,VWS V14.01,2013-04-26 02:10:00,
2013-04-25 21:11:00,46.4,29.3,30.21,WSW,242,0.0,2.0,51,0.00,,CLR,0.04,VWS V14.01,2013-04-26 02:11:00,
2013-04-25 21:15:00,46.4,29.8,30.21,WSW,242,0.0,2.0,52,0.00,,FEW250,0.04,VWS V14.01,2013-04-26 02:15:00,
2013-04-25 21:16:00,46.3,29.6,30.22,WSW,242,1.0,2.0,52,0.00,,CLR,0.04,VWS V14.01,2013-04-26 02:16:00,
2013-04-25 21:20:00,46.2,29.6,30.22,WSW,242,1.0,3.0,52,0.00,,FEW250,0.04,VWS V14.01,2013-04-26 02:20:00,
2013-04-25 21:21:00,46.1,29.5,30.21,WSW,242,1.0,3.0,52,0.00,,CLR,0.04,VWS V14.01,2013-04-26 02:21:00,
2013-04-25 21:25:00,46.0,29.4,30.22,SSW,200,2.0,5.0,52,0.00,,FEW250,0.04,VWS V14.01,2013-04-26 02:25:00,
2013-04-25 21:26:00,46.0,29.4,30.22,North,360,2.0,5.0,52,0.00,,CLR,0.04,VWS V14.01,2013-04-26 02:26:00,
2013-04-25 21:30:00,46.0,29.4,30.22,North,360,2.0,4.0,52,0.00,,SCT250,0.04,VWS V14.01,2013-04-26 02:30:00,
2013-04-25 21:31:00,45.8,29.2,30.22,North,360,0.0,4.0,52,0.00,,CLR,0.04,VWS V14.01,2013-04-26 02:31:00,
2013-04-25 21:35:00,45.8,29.2,30.22,North,360,1.0,4.0,52,0.00,,FEW250,0.04,VWS V14.01,2013-04-26 02:35:00,
2013-04-25 21:37:00,45.7,29.1,30.22,North,360,2.0,5.0,52,0.00,,CLR,0.04,VWS V14.01,2013-04-26 02:37:00,
2013-04-25 21:40:00,45.6,29.0,30.22,North,360,2.0,5.0,52,0.00,,FEW250,0.04,VWS V14.01,2013-04-26 02:40:00,
2013-04-25 21:42:00,45.5,29.4,30.22,North,360,1.0,5.0,53,0.00,,CLR,0.04,VWS V14.01,2013-04-26 02:42:00,
2013-04-25 21:45:00,45.3,29.2,30.22,SSW,194,1.0,4.0,53,0.00,,FEW250,0.04,VWS V14.01,2013-04-26 02:45:00,
2013-04-25 21:47:00,45.1,29.5,30.22,North,360,1.0,2.0,54,0.00,,CLR,0.04,VWS V14.01,2013-04-26 02:47:00,
2013-04-25 21:50:00,45.0,29.4,30.22,North,360,1.0,3.0,54,0.00,,FEW250,0.04,VWS V14.01,2013-04-26 02:50:00,
2013-04-25 21:52:00,44.9,29.3,30.23,North,360,2.0,3.0,54,0.00,,CLR,0.04,VWS V14.01,2013-04-26 02:52:00,
2013-04-25 21:55:00,44.7,29.5,30.23,North,360,1.0,3.0,55,0.00,,FEW250,0.04,VWS V14.01,2013-04-26 02:55:00,
2013-04-25 21:57:00,44.6,29.5,30.23,South,191,3.0,4.0,55,0.00,,CLR,0.04,VWS V14.01,2013-04-26 02:57:00,
2013-04-25 22:00:00,44.6,29.0,30.23,SSW,192,3.0,5.0,54,0.00,,FEW250,0.04,VWS V14.01,2013-04-26 03:00:00,
2013-04-25 22:02:00,44.7,29.1,30.23,SSW,206,2.0,6.0,54,0.00,,CLR,0.04,VWS V14.01,2013-04-26 03:02:00,
2013-04-25 22:05:00,44.7,29.1,30.23,North,360,2.0,6.0,54,0.00,,FEW250,0.04,VWS V14.01,2013-04-26 03:05:00,
2013-04-25 22:07:00,44.7,29.1,30.23,North,360,3.0,6.0,54,0.00,,CLR,0.04,VWS V14.01,2013-04-26 03:07:00,
2013-04-25 22:10:00,44.7,29.1,30.23,North,360,4.0,6.0,54,0.00,,FEW250,0.04,VWS V14.01,2013-04-26 03:10:00,
2013-04-25 22:12:00,44.6,29.5,30.23,North,360,4.0,6.0,55,0.00,,CLR,0.04,VWS V14.01,2013-04-26 03:12:00,
2013-04-25 22:15:00,44.5,29.4,30.23,North,360,3.0,6.0,55,0.00,,FEW250,0.04,VWS V14.01,2013-04-26 03:15:00,
2013-04-25 22:17:00,44.3,29.6,30.23,North,360,4.0,4.0,56,0.00,,CLR,0.04,VWS V14.01,2013-04-26 03:17:00,
2013-04-25 22:20:00,44.2,29.5,30.23,North,360,2.0,4.0,56,0.00,,FEW250,0.04,VWS V14.01,2013-04-26 03:20:00,
2013-04-25 22:22:00,44.1,29.9,30.23,North,360,1.0,4.0,57,0.00,,CLR,0.04,VWS V14.01,2013-04-26 03:22:00,
2013-04-25 22:25:00,44.0,29.8,30.23,North,360,2.0,4.0,57,0.00,,FEW250,0.04,VWS V14.01,2013-04-26 03:25:00,
2013-04-25 22:27:00,43.9,29.7,30.23,North,360,1.0,4.0,57,0.00,,CLR,0.04,VWS V14.01,2013-04-26 03:27:00,
2013-04-25 22:30:00,43.9,29.7,30.23,North,360,1.0,4.0,57,0.00,,FEW250,0.04,VWS V14.01,2013-04-26 03:30:00,
2013-04-25 22:32:00,43.8,30.0,30.23,North,360,3.0,3.0,58,0.00,,CLR,0.04,VWS V14.01,2013-04-26 03:32:00,
2013-04-25 22:35:00,43.7,29.9,30.23,South,191,2.0,3.0,58,0.00,,FEW250,0.04,VWS V14.01,2013-04-26 03:35:00,
2013-04-25 22:37:00,43.6,29.8,30.23,North,360,1.0,4.0,58,0.00,,CLR,0.04,VWS V14.01,2013-04-26 03:37:00,
2013-04-25 22:40:00,43.6,29.8,30.24,North,360,1.0,4.0,58,0.00,,FEW250,0.04,VWS V14.01,2013-04-26 03:40:00,
2013-04-25 22:42:00,43.4,30.0,30.23,North,360,2.0,3.0,59,0.00,,CLR,0.04,VWS V14.01,2013-04-26 03:42:00,
2013-04-25 22:45:00,43.4,30.0,30.23,North,360,1.0,3.0,59,0.00,,FEW250,0.04,VWS V14.01,2013-04-26 03:45:00,
2013-04-25 22:47:00,43.4,30.0,30.24,North,360,3.0,3.0,59,0.00,,CLR,0.04,VWS V14.01,2013-04-26 03:47:00,
2013-04-25 22:50:00,43.4,30.0,30.24,SSW,198,0.0,4.0,59,0.00,,FEW250,0.04,VWS V14.01,2013-04-26 03:50:00,
2013-04-25 22:52:00,43.3,30.0,30.24,North,360,0.0,2.0,59,0.00,,CLR,0.04,VWS V14.01,2013-04-26 03:52:00,
2013-04-25 22:55:00,43.2,29.9,30.24,North,360,2.0,3.0,59,0.00,,FEW250,0.04,VWS V14.01,2013-04-26 03:55:00,
2013-04-25 22:58:00,43.2,30.3,30.24,North,360,2.0,3.0,60,0.00,,CLR,0.04,VWS V14.01,2013-04-26 03:58:00,
2013-04-25 23:00:00,43.2,30.3,30.24,SSW,201,4.0,4.0,60,0.00,,FEW250,0.04,VWS V14.01,2013-04-26 04:00:00,
2013-04-25 23:01:00,43.2,30.3,30.24,North,360,2.0,4.0,60,0.00,,CLR,0.04,VWS V14.01,2013-04-26 04:01:00,
2013-04-25 23:03:00,43.2,30.3,30.24,North,360,3.0,5.0,60,0.00,,CLR,0.04,VWS V14.01,2013-04-26 04:03:00,
2013-04-25 23:04:00,43.2,30.3,30.24,North,360,2.0,5.0,60,0.00,,CLR,0.04,VWS V14.01,2013-04-26 04:04:00,
2013-04-25 23:05:00,43.2,30.3,30.24,North,360,3.0,5.0,60,0.00,,FEW250,0.04,VWS V14.01,2013-04-26 04:05:00,
2013-04-25 23:09:00,43.2,30.3,30.24,North,360,0.0,3.0,60,0.00,,CLR,0.04,VWS V14.01,2013-04-26 04:09:00,
2013-04-25 23:10:00,43.1,30.2,30.24,North,360,2.0,3.0,60,0.00,,CLR,0.04,VWS V14.01,2013-04-26 04:10:00,
2013-04-25 23:15:00,43.0,30.5,30.24,North,360,1.0,2.0,61,0.00,,CLR,0.04,VWS V14.01,2013-04-26 04:15:00,
2013-04-25 23:20:00,42.8,30.3,30.24,North,360,0.0,2.0,61,0.00,,CLR,0.04,VWS V14.01,2013-04-26 04:20:00,
2013-04-25 23:25:00,42.8,30.3,30.24,North,360,2.0,4.0,61,0.00,,CLR,0.04,VWS V14.01,2013-04-26 04:25:00,
2013-04-25 23:30:00,42.8,30.3,30.24,North,360,1.0,5.0,61,0.00,,CLR,0.04,VWS V14.01,2013-04-26 04:30:00,
2013-04-25 23:35:00,42.7,30.6,30.24,North,360,2.0,4.0,62,0.00,,CLR,0.04,VWS V14.01,2013-04-26 04:35:00,
2013-04-25 23:40:00,42.8,30.3,30.25,North,360,3.0,5.0,61,0.00,,CLR,0.04,VWS V14.01,2013-04-26 04:40:00,
2013-04-25 23:45:00,42.9,30.8,30.25,North,360,5.0,7.0,62,0.00,,CLR,0.04,VWS V14.01,2013-04-26 04:45:00,
2013-04-25 23:50:00,42.8,30.7,30.25,North,360,2.0,5.0,62,0.00,,CLR,0.04,VWS V14.01,2013-04-26 04:50:00,
2013-04-25 23:55:00,42.8,30.7,30.24,North,360,3.0,6.0,62,0.00,,CLR,0.04,VWS V14.01,2013-04-26 04:55:00,